Wind_Speed
4 4 4 3 4 4 12 21 9 1 4 9 9 1 4 4 4 3 4 13 15 16 16 15 15 13 12 11 11 10 9 9 9 9 9 9 9 9 9 9 10 11 11 12 12 13 13 14 15
4 3 3 3 2 2 5 13 14 8 6 8 11 4 5 2 4 6 5 11 15 16 15 14 13 12 12 12 11 11 9 8 7 6 6 7 7 7 8 8 9 9 10 10 10 11 11 11 11
5 2 2 3 3 4 4 12 22 7 10 4 8 8 9 6 5 3 4 9 14 16 14 13 12 12 11 12 12 11 10 8 7 6 5 5 6 6 6 7 7 8 8 8 8 9 9 9 10
6 3 3 5 3 5 19 27 13 11 14 7 5 4 7 9 6 7 3 10 11 14 15 13 12 12 12 12 11 10 8 7 5 4 3 3 4 4 6 6 7 7 7 7 8 8 8 9 9
7 4 6 6 4 8 21 27 8 10 19 12 8 4 6 9 11 9 5 9 11 15 16 15 13 12 12 11 11 9 7 6 5 3 2 0 3 4 5 6 7 7 7 7 7 7 8 8 8
9 7 7 7 4 10 21 29 20 12 17 13 8 7 4 12 4 6 5 6 11 13 14 15 14 13 12 11 11 9 8 7 6 4 3 1 3 3 4 6 7 7 7 7 7 7 8 8 8
12 11 10 8 5 8 20 27 23 6 13 17 8 1 7 10 4 2 2 4 8 13 15 14 14 14 14 13 11 10 9 8 7 6 5 2 1 2 4 7 8 9 10 10 8 7 7 8 10
14 14 14 10 5 4 13 23 26 13 8 6 3 3 3 6 1 4 2 7 9 13 15 15 15 14 14 13 13 12 11 10 9 9 7 4 2 1 3 6 7 9 11 12 12 8 6 8 10
17 16 17 11 9 4 7 13 20 15 8 6 7 6 3 4 3 0 1 3 9 16 16 16 16 16 16 16 16 14 13 12 11 9 8 5 4 2 2 4 7 10 13 15 15 14 8 7 9
16 19 18 8 8 12 9 9 17 14 14 9 6 6 7 6 6 6 4 4 6 12 15 17 20 20 20 19 17 14 13 12 12 12 9 8 7 4 0 4 8 10 12 16 17 17 16 9 7
15 15 11 8 3 5 10 9 12 16 19 16 13 4 7 5 6 8 8 8 11 11 20 18 22 23 22 19 17 16 15 14 13 13 11 10 8 5 3 5 8 11 13 16 20 19 18 17 8
11 4 4 5 6 9 4 11 12 18 16 16 16 7 7 8 5 10 10 16 12 10 12 16 15 21 22 20 19 18 16 15 16 14 12 12 10 8 7 6 8 11 14 18 20 22 20 19 15
10 11 14 10 8 12 12 11 15 17 19 20 15 10 13 13 11 10 11 13 13 15 15 13 13 14 20 21 21 20 20 18 17 15 13 13 13 11 10 8 9 11 14 18 20 21 21 21 17
11 17 16 12 10 12 12 13 16 19 21 23 16 12 16 20 18 15 12 13 12 16 17 20 12 13 19 20 21 20 18 16 17 15 15 14 15 13 10 9 12 14 14 17 21 17 18 21 21
15 18 17 13 13 16 18 20 18 16 19 22 23 18 18 20 24 20 13 12 7 8 8 13 18 20 18 18 16 18 16 15 14 15 16 15 15 17 14 12 16 17 18 17 19 20 18 19 21
16 16 16 2 8 5 14 18 14 15 18 25 23 24 23 23 26 25 21 14 12 13 8 9 14 15 16 18 16 16 15 14 14 16 17 17 16 18 16 17 19 19 19 18 20 19 21 20 23
11 14 16 17 6 14 18 16 17 18 20 19 18 22 24 26 26 26 22 16 18 15 15 11 8 8 16 18 17 18 18 16 17 18 18 18 17 18 17 18 19 20 20 20 18 20 19 20 22
8 10 12 15 13 17 19 21 19 21 23 17 14 22 26 25 24 24 25 22 22 20 18 15 18 13 13 22 22 21 19 17 17 16 15 19 20 22 23 20 16 18 18 17 17 15 14 15 17
10 14 18 12 14 22 20 25 21 21 25 22 14 22 23 27 23 24 27 27 28 24 21 20 20 16 16 22 29 26 25 23 21 21 21 23 25 23 22 18 18 15 16 18 17 17 17 17 16
12 19 18 19 16 25 24 21 21 22 20 21 19 13 21 17 24 24 29 33 35 29 25 24 23 23 21 24 26 24 24 23 25 24 25 28 27 26 24 21 18 19 22 21 20 19 18 19 19
16 21 22 23 21 24 28 27 21 19 17 19 20 20 17 19 24 22 31 35 35 31 30 30 29 30 27 30 24 22 24 26 26 26 29 29 29 29 26 23 24 24 24 23 22 20 21 19 20
23 19 22 24 25 23 19 14 16 17 20 21 26 24 20 18 24 20 24 29 33 33 35 36 33 32 34 31 25 27 30 29 27 30 33 33 30 29 27 29 30 29 28 27 32 25 24 29 20
24 19 23 25 25 21 15 11 9 17 20 19 15 16 22 19 21 24 26 29 35 35 37 36 33 35 35 31 29 32 35 31 30 32 36 33 32 29 25 29 31 33 28 29 29 28 19 27 17
25 25 22 19 17 9 9 8 4 11 10 14 17 19 19 21 22 21 23 28 30 31 31 34 35 38 38 34 34 34 36 34 33 34 35 35 33 31 29 28 30 30 32 32 31 30 28 22 19
20 16 7 6 4 5 8 8 6 6 11 14 14 17 18 16 23 26 30 29 32 32 29 27 27 30 42 43 41 39 38 38 37 37 37 37 37 36 36 34 35 34 36 37 34 32 30 30 24
17 15 5 4 3 4 6 7 7 10 13 15 16 20 22 19 20 26 34 39 39 31 29 25 15 13 27 37 38 35 37 39 41 44 43 41 41 41 39 35 27 21 20 20 18 19 22 24 24
13 9 11 5 3 1 5 10 10 13 13 16 17 15 15 20 18 26 31 42 21 8 5 10 11 5 13 7 14 21 19 18 20 24 28 29 27 24 23 24 24 25 25 24 22 18 19 21 24
13 11 6 5 2 3 5 7 12 9 7 5 11 14 15 18 21 26 26 26 26 31 46 42 23 20 17 8 9 10 13 15 19 21 24 26 28 28 27 26 27 29 30 30 27 28 29 28 26
14 13 11 9 9 5 3 7 6 12 12 22 22 18 15 16 17 21 25 34 38 38 38 39 36 36 33 15 8 11 14 15 19 22 24 27 31 32 34 31 29 30 32 34 31 28 28 31 31
21 16 13 13 8 10 10 19 19 20 15 13 11 9 10 14 16 19 21 23 27 31 28 21 20 29 31 29 10 10 12 16 20 24 26 28 32 34 35 36 32 29 29 29 27 24 27 29 30
Wind_Direction
258 279 331 344 43 92 104 108 58 146 69 109 138 89 325 292 199 274 248 193 181 175 167 168 163 169 175 175 170 160 147 134 125 119 114 108 98 88 78 72 65 60 57 52 50 50 48 52 52
267 287 297 282 147 146 92 75 356 287 170 106 125 97 62 273 258 286 222 205 178 172 170 171 170 174 183 185 181 171 161 150 141 133 123 106 92 78 67 58 52 48 48 46 43 42 42 45 49
274 281 256 264 250 47 26 355 332 287 185 116 133 151 88 58 18 354 230 202 184 167 174 179 177 182 190 195 191 185 175 168 161 158 140 121 100 79 62 49 42 40 37 36 38 38 39 42 42
261 256 241 247 250 15 8 6 337 187 188 203 178 347 76 57 35 43 186 186 181 165 175 185 187 187 190 198 200 200 191 187 184 185 159 126 92 65 45 30 28 32 37 31 28 27 27 36 31
252 248 243 248 259 12 18 13 1 184 209 224 213 266 70 34 8 37 95 176 187 173 180 189 190 190 193 200 206 209 208 209 210 213 242 23 44 31 35 35 25 23 25 23 22 18 14 21 22
243 238 246 258 273 32 31 30 26 182 201 221 238 165 28 358 41 21 120 167 185 184 189 194 194 192 197 203 209 213 217 218 222 224 237 273 4 17 40 41 28 14 11 15 15 10 2 1 6
236 241 252 267 286 33 27 34 34 18 231 233 190 221 359 358 32 119 201 182 193 192 200 207 205 204 201 205 213 218 223 225 225 232 235 235 321 29 43 48 39 29 21 18 5 356 351 345 346
237 247 255 260 276 356 18 42 37 33 225 191 190 249 330 325 223 152 168 178 203 204 203 215 217 219 217 217 219 220 222 223 221 228 232 235 209 89 88 56 33 29 26 21 17 356 333 337 340
231 242 253 260 269 255 350 14 30 14 13 290 280 268 267 273 182 153 321 204 192 199 206 216 225 225 227 226 224 226 228 230 230 232 231 226 192 184 100 48 24 22 25 22 22 19 355 334 335
226 234 247 270 289 280 288 335 6 346 330 346 297 223 244 293 275 198 163 136 183 214 216 225 229 228 229 230 230 232 237 238 237 238 234 221 204 205 14 19 9 11 14 10 11 13 11 353 329
232 243 259 272 349 308 265 270 339 330 326 321 334 280 253 313 260 244 315 316 280 232 224 226 231 233 232 235 236 236 236 237 239 241 240 223 213 232 274 334 344 349 357 357 357 2 5 4 343
243 207 278 216 275 284 267 273 302 309 322 324 316 311 277 313 271 263 314 317 280 246 240 255 249 229 227 230 233 235 235 237 237 239 241 231 227 243 264 303 326 330 343 352 345 352 357 360 358
252 232 256 267 284 296 283 301 297 292 297 313 308 284 275 284 258 267 310 313 285 239 290 251 246 251 229 220 229 232 237 238 239 242 243 239 238 250 264 283 314 314 320 336 333 335 349 350 352
252 249 248 245 292 291 307 288 292 284 290 302 295 287 271 278 264 269 294 307 303 248 299 249 219 237 212 212 224 236 242 248 253 252 257 251 245 250 259 281 293 295 294 309 319 317 336 343 343
259 267 251 265 274 279 293 291 297 312 292 294 287 278 270 264 267 270 279 279 278 265 273 241 251 237 219 215 223 235 245 251 253 263 260 258 264 257 256 267 277 289 284 290 306 305 321 330 333
275 275 281 264 313 300 340 339 329 324 295 302 280 276 274 275 266 263 264 255 241 247 253 242 219 221 234 229 230 235 241 247 253 262 269 265 267 260 264 263 269 277 286 287 299 305 317 317 331
291 268 280 289 262 325 344 344 328 326 326 334 254 265 261 272 265 250 250 239 240 237 245 270 253 262 252 232 231 233 234 240 253 259 266 264 255 256 263 276 282 284 291 291 302 309 312 316 316
297 298 287 286 261 320 325 325 333 326 308 310 289 260 254 265 272 258 242 235 227 226 237 240 248 258 241 233 237 238 241 240 248 260 268 267 267 268 271 274 282 286 293 297 302 299 302 311 309
278 291 297 300 296 312 315 318 328 318 312 293 284 263 260 267 277 273 251 236 230 235 239 238 256 257 267 256 238 240 240 238 247 250 248 251 253 258 262 262 275 280 291 283 279 285 285 291 299
286 292 300 308 310 301 300 314 322 315 322 320 289 293 266 294 294 281 255 244 232 233 241 241 236 259 254 250 243 245 250 249 251 247 245 245 241 242 245 253 265 271 270 270 273 281 289 286 297
289 295 309 311 313 292 289 289 297 308 305 302 308 291 296 273 270 260 243 232 224 232 235 233 235 253 237 242 233 245 250 255 254 254 253 255 254 250 247 253 262 264 273 268 270 285 294 291 290
294 299 305 305 305 304 307 290 289 294 298 301 300 307 309 276 261 248 239 235 230 232 232 233 236 230 231 224 239 252 253 252 259 257 258 258 256 255 256 265 272 273 276 278 284 308 281 308 290
291 298 299 298 298 296 291 273 277 294 297 307 313 314 311 284 247 234 232 227 228 234 232 240 238 235 241 242 248 253 256 256 252 253 259 263 269 276 273 266 267 276 278 284 296 292 298 318 282
290 297 293 292 292 269 262 270 273 293 305 310 312 312 305 299 251 232 237 232 228 233 240 239 237 248 249 248 249 252 252 253 250 253 259 265 268 271 273 272 271 276 281 284 289 295 293 302 306
281 287 305 298 284 243 231 299 251 284 301 300 300 300 312 288 270 258 255 247 245 241 239 249 259 261 248 244 242 245 247 251 253 255 257 262 267 269 272 272 274 276 279 281 283 285 287 286 279
263 263 235 240 212 265 257 272 261 270 283 292 300 306 307 306 264 258 260 262 255 237 237 238 253 267 247 241 241 242 244 250 251 251 253 258 262 265 269 273 273 274 280 283 282 274 273 282 276
236 233 245 237 260 219 233 248 251 255 267 294 303 304 303 304 288 277 268 268 229 184 328 266 210 285 304 255 224 225 231 237 241 244 250 255 258 261 267 272 279 283 284 284 280 272 258 269 284
240 233 222 226 223 252 221 236 244 250 242 273 296 301 295 287 283 284 272 250 219 294 304 302 297 309 312 288 270 231 240 255 251 247 249 253 258 262 266 274 280 284 289 291 288 282 276 273 276
227 230 234 244 228 200 198 244 226 239 252 292 290 285 287 298 298 289 277 269 278 281 290 295 284 295 249 261 296 249 252 267 274 271 268 269 269 273 276 276 282 285 286 288 288 280 270 268 268
265 258 242 229 233 227 250 259 259 274 281 280 280 286 295 309 322 322 294 284 283 281 285 293 282 257 247 236 274 330 299 290 288 283 279 281 282 280 283 287 286 288 287 285 281 272 266 255 251
Height
3190 3190 3191 3190 3194 3190 3189 3192 3192 3192 3191 3189 3189 3189 3190 3188 3189 3192 3188 3187 3188 3190 3191 3194 3195 3198 3200 3202 3202 3203 3203 3202 3202 3202 3202 3201 3201 3201 3200 3199 3198 3197 3197 3197 3196 3195 3194 3194 3193
3190 3190 3191 3190 3192 3190 3192 3193 3193 3192 3190 3190 3189 3189 3189 3190 3189 3188 3187 3187 3189 3191 3193 3195 3198 3200 3201 3203 3203 3203 3204 3205 3205 3204 3204 3203 3203 3203 3202 3201 3200 3199 3198 3197 3197 3197 3196 3196 3195
3189 3190 3191 3189 3190 3191 3193 3195 3191 3189 3190 3188 3189 3189 3189 3189 3188 3187 3187 3189 3190 3191 3195 3197 3199 3201 3203 3204 3204 3205 3205 3206 3206 3206 3205 3205 3204 3204 3203 3202 3201 3200 3199 3199 3198 3197 3197 3197 3196
3188 3190 3191 3189 3189 3191 3192 3190 3187 3191 3190 3190 3190 3191 3190 3188 3188 3187 3188 3190 3191 3192 3195 3198 3200 3202 3204 3205 3206 3207 3207 3208 3208 3208 3207 3207 3206 3205 3204 3203 3202 3201 3200 3199 3199 3198 3197 3197 3196
3188 3189 3189 3188 3189 3192 3192 3188 3184 3186 3189 3190 3190 3191 3189 3189 3189 3188 3188 3190 3193 3193 3196 3199 3201 3203 3204 3206 3207 3208 3209 3210 3210 3210 3210 3209 3208 3207 3205 3204 3203 3203 3202 3200 3199 3198 3198 3198 3197
3187 3188 3188 3187 3189 3191 3190 3186 3182 3184 3187 3189 3191 3190 3190 3189 3189 3190 3190 3190 3193 3195 3197 3199 3201 3202 3204 3206 3208 3209 3210 3210 3210 3210 3210 3210 3209 3208 3206 3205 3204 3204 3203 3201 3199 3198 3197 3197 3197
3185 3187 3187 3188 3189 3189 3189 3185 3183 3185 3187 3190 3192 3192 3192 3189 3189 3191 3191 3192 3193 3195 3198 3200 3201 3203 3203 3205 3207 3208 3209 3210 3210 3210 3210 3209 3209 3208 3207 3205 3205 3205 3204 3202 3200 3198 3197 3197 3197
3184 3185 3185 3187 3189 3189 3188 3188 3188 3188 3188 3191 3191 3191 3191 3190 3190 3190 3192 3192 3193 3195 3198 3200 3201 3203 3204 3205 3206 3207 3208 3208 3208 3209 3209 3209 3209 3208 3207 3206 3206 3205 3204 3202 3201 3199 3198 3197 3196
3182 3184 3184 3187 3188 3189 3189 3188 3189 3191 3192 3190 3190 3191 3191 3190 3190 3190 3191 3191 3192 3194 3196 3199 3201 3202 3203 3203 3204 3205 3206 3207 3207 3208 3208 3208 3208 3208 3208 3207 3206 3205 3204 3203 3201 3199 3198 3197 3197
3180 3182 3184 3186 3188 3188 3188 3187 3188 3191 3191 3190 3190 3190 3190 3190 3190 3189 3189 3190 3192 3193 3195 3197 3198 3199 3200 3202 3203 3204 3206 3206 3206 3207 3208 3208 3208 3208 3208 3207 3207 3205 3204 3203 3201 3200 3198 3197 3196
3178 3181 3184 3185 3187 3186 3185 3186 3186 3188 3188 3188 3187 3188 3188 3189 3188 3188 3190 3191 3189 3189 3189 3191 3192 3195 3198 3201 3202 3203 3204 3205 3205 3205 3206 3206 3207 3208 3208 3207 3207 3206 3204 3203 3202 3200 3198 3197 3195
3178 3180 3182 3182 3183 3183 3184 3183 3183 3184 3184 3185 3185 3184 3185 3186 3187 3187 3189 3190 3190 3189 3190 3189 3189 3190 3193 3197 3199 3200 3201 3202 3203 3203 3205 3206 3206 3207 3207 3207 3206 3206 3204 3203 3202 3200 3198 3197 3195
3176 3177 3177 3179 3180 3181 3181 3181 3182 3182 3182 3183 3184 3182 3181 3182 3185 3186 3187 3187 3188 3189 3189 3185 3187 3188 3190 3192 3196 3197 3198 3199 3201 3201 3203 3204 3205 3206 3206 3206 3206 3205 3204 3202 3202 3200 3198 3197 3195
3174 3173 3174 3176 3178 3179 3179 3179 3179 3180 3179 3180 3181 3181 3177 3177 3181 3183 3184 3184 3185 3187 3187 3187 3186 3186 3186 3189 3192 3196 3197 3198 3199 3200 3201 3202 3203 3204 3204 3204 3205 3204 3203 3201 3200 3199 3196 3195 3194
3172 3171 3172 3174 3176 3177 3177 3176 3177 3178 3177 3177 3177 3178 3177 3175 3174 3179 3182 3182 3184 3186 3186 3185 3186 3185 3186 3187 3190 3194 3195 3196 3197 3198 3198 3200 3201 3202 3203 3203 3203 3202 3201 3200 3198 3198 3195 3193 3192
3172 3172 3170 3172 3173 3174 3175 3174 3176 3175 3173 3173 3174 3175 3174 3173 3174 3175 3178 3180 3183 3184 3184 3184 3184 3185 3185 3186 3187 3191 3192 3194 3195 3196 3196 3196 3197 3198 3199 3200 3200 3198 3198 3197 3196 3196 3193 3190 3189
3170 3170 3171 3169 3170 3171 3172 3173 3173 3174 3171 3167 3165 3169 3170 3169 3169 3173 3175 3177 3179 3181 3182 3183 3183 3183 3182 3184 3186 3189 3190 3191 3193 3194 3194 3194 3193 3194 3194 3194 3196 3195 3194 3193 3194 3192 3190 3188 3188
3170 3169 3169 3169 3169 3168 3169 3170 3171 3169 3166 3164 3162 3164 3165 3165 3166 3168 3172 3174 3176 3177 3179 3180 3179 3179 3179 3182 3184 3186 3186 3187 3188 3190 3191 3190 3190 3190 3189 3189 3190 3189 3190 3189 3189 3188 3187 3185 3184
3168 3167 3167 3168 3168 3165 3166 3167 3168 3163 3161 3161 3161 3160 3161 3162 3163 3165 3167 3170 3171 3173 3174 3176 3175 3175 3174 3176 3179 3181 3182 3182 3183 3185 3185 3185 3185 3186 3185 3184 3184 3185 3187 3185 3183 3184 3182 3182 3181
3165 3165 3165 3165 3165 3162 3162 3164 3163 3161 3159 3157 3155 3157 3156 3156 3158 3161 3162 3164 3164 3167 3168 3170 3170 3170 3171 3173 3174 3174 3175 3176 3179 3179 3178 3177 3178 3179 3180 3181 3181 3182 3179 3179 3181 3180 3179 3179 3178
3162 3162 3162 3162 3159 3157 3156 3158 3159 3158 3157 3156 3152 3151 3150 3148 3148 3150 3152 3156 3160 3162 3161 3161 3162 3164 3165 3167 3168 3167 3167 3168 3171 3172 3169 3170 3172 3175 3175 3175 3175 3175 3176 3175 3177 3178 3177 3176 3175
3157 3158 3159 3158 3156 3153 3153 3150 3153 3152 3151 3152 3150 3147 3145 3144 3144 3147 3150 3152 3153 3157 3155 3158 3157 3158 3159 3159 3160 3160 3160 3160 3162 3165 3162 3163 3163 3164 3169 3170 3169 3172 3171 3171 3173 3173 3172 3174 3171
3154 3155 3154 3154 3152 3149 3150 3148 3146 3147 3146 3147 3147 3146 3143 3142 3142 3143 3145 3146 3149 3152 3152 3154 3153 3153 3149 3143 3150 3153 3153 3155 3158 3159 3155 3158 3156 3156 3161 3162 3164 3165 3166 3167 3167 3166 3166 3163 3166
3151 3150 3149 3148 3147 3146 3146 3146 3142 3143 3143 3143 3144 3144 3143 3142 3141 3140 3141 3142 3142 3145 3146 3146 3146 3146 3145 3145 3146 3146 3148 3148 3149 3150 3149 3149 3152 3153 3155 3156 3157 3158 3159 3162 3162 3160 3161 3160 3158
3147 3147 3145 3146 3145 3145 3144 3142 3139 3140 3140 3141 3141 3141 3141 3142 3141 3141 3141 3141 3143 3140 3138 3139 3140 3142 3140 3137 3139 3141 3142 3141 3141 3142 3143 3144 3145 3146 3148 3149 3150 3150 3151 3152 3153 3154 3153 3152 3152
3143 3143 3144 3146 3146 3143 3143 3139 3137 3138 3137 3137 3137 3138 3137 3137 3139 3138 3137 3135 3135 3136 3134 3131 3136 3139 3138 3130 3128 3131 3132 3133 3134 3135 3135 3136 3138 3139 3140 3140 3142 3143 3143 3144 3145 3145 3145 3144 3144
3138 3138 3139 3138 3139 3140 3138 3136 3135 3135 3135 3135 3134 3135 3135 3134 3133 3133 3132 3131 3130 3132 3137 3133 3126 3133 3140 3131 3125 3121 3124 3127 3127 3127 3127 3127 3129 3130 3132 3133 3134 3136 3136 3137 3138 3139 3139 3139 3138
3134 3134 3135 3135 3137 3140 3134 3132 3131 3132 3134 3134 3134 3133 3132 3132 3132 3131 3129 3127 3123 3124 3126 3128 3127 3131 3133 3125 3124 3116 3118 3123 3123 3121 3120 3120 3121 3122 3124 3125 3127 3127 3127 3129 3130 3130 3130 3130 3130
3130 3129 3131 3132 3132 3129 3132 3127 3128 3129 3129 3130 3131 3130 3129 3129 3128 3127 3126 3125 3124 3122 3117 3119 3118 3120 3123 3121 3115 3110 3112 3114 3117 3117 3114 3114 3113 3113 3113 3116 3116 3118 3118 3119 3120 3121 3121 3121 3121
3123 3122 3124 3125 3126 3124 3123 3116 3123 3125 3125 3125 3125 3126 3125 3125 3124 3121 3118 3118 3117 3115 3115 3114 3115 3114 3113 3111 3107 3104 3107 3110 3110 3108 3107 3106 3106 3105 3103 3103 3108 3108 3107 3108 3110 3110 3110 3111 3112